Location: *
(48.8667°N, 2.3331°E)
Time: 06:04:13
(UTC+00:00)

Cosmos 2233 Rocket - Pass Details

Date: 09 April 2020
Orbit: 952 x 991 km, 82.9° (Epoch: 29 May)

Event Time Altitude Azimuth Distance (km) Brightness Sun altitude
Rises 23:39:54 0° 353° (N) 3,703 8.1 -33.0°
Reaches altitude 10° 23:42:30 10° 357° (N) 2,746 7.2 -33.1°
Enters shadow 23:47:59 55° 49° (NE) 1,166 4.4 -33.1°
